Find Starlink 30426

NORAD ID: 57848 Int'l Des: 2023-141 Owner: SPXS Country: US Constellation: starlink operational
LEOCIRCULAR

リアルタイム位置

3D地球を読み込み中...

Starlink 30426について

説明を読み込み中...

次回通過

Passes for default location (London). Set your location on the main map for personalized predictions.

高度履歴

Loading altitude history...

軌道要素

1 57848U 23141J 26125.44521895 .00001371 00000-0 58392-4 0 9990
2 57848 53.1622 20.5308 0001304 92.0367 268.0783 15.30201637149013
Epoch: May 5, 2026 • Age: 6 hours

現在のステータス

高度 490.3 km
速度 7.62 km/s
衛星直下点 -42.87°S, 133.27°E
打ち上げ日 Sep 12, 2023
運用期間 2.6 years
タイプ internet

技術仕様

分類 Payload
質量 730.00 kg
乾燥質量 700.00 kg
総質量 730.00 kg
長さ 0.30 m
直径 4.10 m
スパン 29.00 m
形状 Box + pan
製造者 SPXS
バスタイプ Starlink V2M
フェーズステータス In Orbit
所有者/国 SPXS/US

Most Searched